IRIDIUM 134 (43075 NORAD) Tracking and Keplerian Element Data

This shows tracking and keplerian element data for the satellite.

Feedback or suggestion? Click here.




ElementValue
Catalog43075
NameIRIDIUM 134
Epoch Orbit19692
Epoch Day269.65772415
Epoch Year2021
RAAN322.7277
Inclination86.3975
Eccentricity0.0002144
Argument of Perigee101.1505
Mean Anonmoly258.9932
Mean Motion14.34215288
Decay Rate8.6E-07
L11 43075U 17083F 21269.65772415 .00000086 00000-0 23623-4 0 9999
L22 43075 86.3975 322.7277 0002144 101.1505 258.9932 14.34215288196926

Live tracking and technical data element details for IRIDIUM 134 (NORAD 43075). IRIDIUM 134 can be tracked NOW for your location showing map with azimuth and elevation plus other details from your city location.

Track the satellite on the map from your city or location and see movement details for azimuth, elevation, latitude, longitude, range, height, and movement on the map or in text.







IsCatalogInMostPopularTable: catalog: 43075, numindb: 576
Update: records affected: 1



GetName: 43075 IRIDIUM 134

Hit Count: updated at: Tue, 28 Sep 2021 16:40:31 GMT